SWA4306 KAUS-KAMA

Flight info

Callsign SWA4306
Flight time 1h 4m
Altitude 32000
Route ELOEL3 ABI TURKI
Aircraft B738/M-SDE2E3FGHIRWXY/LB1

Departure

Time 2026-04-26 18:08
Airport Austin Bergstrom International Airport (KAUS)

Arrival

Time 2026-04-26 19:13
Airport Rick Husband Amarillo International Airport (KAMA)
Time Latitude Longitude Altitude Speed Heading
2026-04-26 17:50 30.20155 -97.66554 526 ft 0 kts 338°
2026-04-26 18:01 30.20146 -97.66550 526 ft 3 kts 341°
2026-04-26 18:01 30.20124 -97.66543 526 ft 3 kts 352°
2026-04-26 18:02 30.20102 -97.66542 526 ft 3 kts 13°
2026-04-26 18:02 30.20088 -97.66547 526 ft 3 kts 40°
2026-04-26 18:02 30.20079 -97.66563 526 ft 1 kts 76°
2026-04-26 18:02 30.20079 -97.66564 526 ft 0 kts 76°
2026-04-26 18:05 30.20080 -97.66560 526 ft 2 kts 76°
2026-04-26 18:05 30.20088 -97.66521 526 ft 8 kts 78°
2026-04-26 18:05 30.20090 -97.66435 526 ft 13 kts 99°
2026-04-26 18:05 30.20010 -97.66392 526 ft 16 kts 182°
2026-04-26 18:06 30.19915 -97.66344 526 ft 17 kts 101°
2026-04-26 18:06 30.19918 -97.66195 526 ft 20 kts 88°
2026-04-26 18:06 30.19921 -97.66032 526 ft 20 kts 80°
2026-04-26 18:06 30.20049 -97.65992 526 ft 22 kts 358°
2026-04-26 18:07 30.20211 -97.65995 526 ft 24 kts
2026-04-26 18:07 30.20355 -97.65983 526 ft 19 kts 44°
2026-04-26 18:07 30.20373 -97.65854 527 ft 16 kts 90°
2026-04-26 18:07 30.20355 -97.65795 528 ft 13 kts 152°
2026-04-26 18:08 30.20079 -97.65780 525 ft 69 kts 179°
2026-04-26 18:08 30.19368 -97.65761 527 ft 132 kts 179°
2026-04-26 18:08 30.18299 -97.65717 754 ft 162 kts 177°
2026-04-26 18:08 30.17158 -97.65675 1430 ft 166 kts 178°
2026-04-26 18:09 30.15993 -97.65657 2129 ft 172 kts 178°
2026-04-26 18:09 30.14704 -97.65641 2497 ft 200 kts 178°
2026-04-26 18:09 30.13227 -97.65615 2732 ft 223 kts 178°
2026-04-26 18:09 30.11634 -97.65599 3149 ft 232 kts 182°
2026-04-26 18:10 30.10103 -97.66173 3571 ft 248 kts 214°
2026-04-26 18:10 30.08987 -97.67756 3967 ft 265 kts 244°
2026-04-26 18:10 30.08597 -97.69863 4743 ft 275 kts 269°
2026-04-26 18:10 30.09032 -97.72027 5575 ft 282 kts 295°
2026-04-26 18:11 30.10299 -97.73768 6357 ft 290 kts 324°
2026-04-26 18:11 30.12162 -97.74682 7134 ft 294 kts 345°
2026-04-26 18:11 30.14184 -97.75119 7906 ft 298 kts 350°
2026-04-26 18:11 30.16248 -97.75440 8607 ft 301 kts 351°
2026-04-26 18:12 30.18341 -97.75750 9312 ft 304 kts 350°
2026-04-26 18:12 30.20444 -97.76076 10022 ft 306 kts 350°
2026-04-26 18:12 30.22584 -97.76427 10477 ft 320 kts 349°
2026-04-26 18:12 30.24862 -97.76819 10643 ft 341 kts 349°
2026-04-26 18:13 30.27274 -97.77247 10801 ft 360 kts 349°
2026-04-26 18:13 30.29807 -97.77706 11025 ft 375 kts 349°
2026-04-26 18:13 30.32413 -97.78182 11516 ft 381 kts 349°
2026-04-26 18:13 30.34146 -97.78499 11951 ft 381 kts 349°
2026-04-26 18:14 30.37659 -97.79147 12875 ft 382 kts 349°
2026-04-26 18:14 30.40258 -97.79628 13529 ft 384 kts 348°
2026-04-26 18:14 30.42904 -97.80118 14187 ft 386 kts 348°
2026-04-26 18:14 30.45569 -97.80614 14841 ft 388 kts 348°
2026-04-26 18:15 30.48244 -97.81112 15515 ft 391 kts 347°
2026-04-26 18:15 30.50932 -97.81614 16164 ft 393 kts 347°
2026-04-26 18:15 30.53644 -97.82120 16798 ft 395 kts 347°
2026-04-26 18:15 30.56362 -97.82626 17425 ft 397 kts 347°
2026-04-26 18:16 30.59099 -97.83135 18027 ft 399 kts 346°
2026-04-26 18:16 30.64619 -97.84164 19183 ft 404 kts 346°
2026-04-26 18:16 30.67411 -97.84686 19695 ft 408 kts 346°
2026-04-26 18:17 30.70228 -97.85214 20226 ft 411 kts 346°
2026-04-26 18:17 30.73057 -97.85744 20723 ft 414 kts 345°
2026-04-26 18:17 30.75830 -97.86455 21230 ft 412 kts 338°
2026-04-26 18:17 30.78560 -97.87475 21715 ft 413 kts 336°
2026-04-26 18:18 30.81290 -97.88556 22157 ft 416 kts 336°
2026-04-26 18:18 30.84044 -97.89630 22608 ft 419 kts 336°
2026-04-26 18:18 30.86819 -97.90680 23046 ft 421 kts 336°
2026-04-26 18:18 30.89619 -97.91727 23456 ft 423 kts 336°
2026-04-26 18:19 30.92344 -97.92975 23868 ft 420 kts 329°
2026-04-26 18:19 30.94961 -97.94503 24248 ft 421 kts 327°
2026-04-26 18:19 30.97565 -97.96089 24624 ft 423 kts 327°
2026-04-26 18:19 31.00181 -97.97682 24996 ft 426 kts 327°
2026-04-26 18:20 31.02821 -97.99269 25394 ft 428 kts 327°
2026-04-26 18:20 31.05480 -98.00849 25750 ft 430 kts 328°
2026-04-26 18:20 31.08161 -98.02431 26061 ft 433 kts 327°
2026-04-26 18:20 31.09031 -98.02944 26129 ft 435 kts 327°
2026-04-26 18:21 31.13561 -98.05615 26569 ft 440 kts 327°
2026-04-26 18:21 31.16189 -98.07415 26880 ft 436 kts 320°
2026-04-26 18:21 31.18553 -98.09602 27242 ft 431 kts 313°
2026-04-26 18:21 31.20594 -98.12123 27731 ft 423 kts 306°
2026-04-26 18:22 31.22511 -98.14712 28255 ft 420 kts 306°
2026-04-26 18:22 31.24415 -98.17292 28742 ft 418 kts 306°
2026-04-26 18:22 31.26311 -98.19856 29200 ft 416 kts 306°
2026-04-26 18:22 31.28204 -98.22407 29645 ft 414 kts 306°
2026-04-26 18:23 31.30094 -98.24948 30044 ft 414 kts 306°
2026-04-26 18:23 31.31979 -98.27478 30541 ft 410 kts 306°
2026-04-26 18:23 31.33845 -98.29979 31092 ft 406 kts 306°
2026-04-26 18:23 31.35692 -98.32454 31579 ft 403 kts 306°
2026-04-26 18:24 31.37532 -98.34921 31886 ft 403 kts 305°
2026-04-26 18:24 31.39359 -98.37378 31888 ft 406 kts 306°
2026-04-26 18:24 31.43058 -98.42349 31891 ft 401 kts 306°
2026-04-26 18:25 31.46098 -98.46438 31904 ft 399 kts 305°
2026-04-26 18:25 31.49744 -98.51349 31899 ft 399 kts 305°
2026-04-26 18:26 31.53386 -98.56263 31899 ft 399 kts 305°
2026-04-26 18:26 31.57028 -98.61182 31902 ft 399 kts 305°
2026-04-26 18:27 31.60678 -98.66117 31888 ft 400 kts 305°
2026-04-26 18:27 31.64309 -98.71028 31890 ft 400 kts 305°
2026-04-26 18:28 31.67965 -98.75979 31870 ft 401 kts 305°
2026-04-26 18:28 31.71617 -98.80939 31867 ft 402 kts 305°
2026-04-26 18:29 31.75271 -98.85911 31865 ft 402 kts 305°
2026-04-26 18:29 31.78928 -98.90889 31866 ft 403 kts 305°
2026-04-26 18:30 31.82590 -98.95878 31856 ft 403 kts 305°
2026-04-26 18:30 31.86253 -99.00877 31847 ft 403 kts 304°
2026-04-26 18:31 31.89889 -99.05845 31850 ft 403 kts 304°
2026-04-26 18:31 31.93549 -99.10852 31857 ft 402 kts 304°
2026-04-26 18:32 31.97201 -99.15855 31858 ft 402 kts 304°
2026-04-26 18:32 32.00845 -99.20854 31861 ft 402 kts 304°
2026-04-26 18:33 32.04488 -99.25859 31865 ft 402 kts 304°
2026-04-26 18:33 32.08133 -99.30873 31861 ft 403 kts 304°
2026-04-26 18:34 32.11779 -99.35895 31858 ft 403 kts 304°
2026-04-26 18:34 32.15429 -99.40931 31864 ft 404 kts 304°
2026-04-26 18:35 32.19082 -99.45975 31862 ft 404 kts 304°
2026-04-26 18:35 32.22716 -99.50998 31863 ft 404 kts 303°
2026-04-26 18:36 32.26368 -99.56056 31859 ft 404 kts 303°
2026-04-26 18:36 32.30019 -99.61114 31847 ft 405 kts 303°
2026-04-26 18:37 32.33670 -99.66189 31855 ft 405 kts 303°
2026-04-26 18:37 32.37315 -99.71260 31854 ft 405 kts 303°
2026-04-26 18:38 32.40966 -99.76344 31833 ft 404 kts 303°
2026-04-26 18:38 32.44580 -99.81380 31827 ft 404 kts 303°
2026-04-26 18:39 32.48510 -99.86187 31821 ft 413 kts 313°
2026-04-26 18:39 32.53453 -99.89867 31819 ft 424 kts 323°
2026-04-26 18:40 32.58660 -99.93162 31825 ft 424 kts 323°
2026-04-26 18:40 32.63862 -99.96470 31823 ft 423 kts 323°
2026-04-26 18:41 32.69036 -99.99791 31833 ft 423 kts 323°
2026-04-26 18:41 32.74201 -100.03126 31849 ft 422 kts 322°
2026-04-26 18:42 32.79332 -100.06449 31854 ft 423 kts 323°
2026-04-26 18:42 32.84506 -100.09803 31845 ft 423 kts 323°
2026-04-26 18:43 32.89671 -100.13156 31851 ft 423 kts 323°
2026-04-26 18:43 32.94840 -100.16516 31861 ft 423 kts 323°
2026-04-26 18:44 33.00015 -100.19888 31858 ft 424 kts 323°
2026-04-26 18:44 33.05192 -100.23262 31854 ft 424 kts 323°
2026-04-26 18:45 33.10377 -100.26644 31848 ft 424 kts 323°
2026-04-26 18:45 33.15520 -100.30004 31849 ft 424 kts 323°
2026-04-26 18:46 33.20690 -100.33388 31852 ft 423 kts 323°
2026-04-26 18:46 33.25854 -100.36773 31847 ft 423 kts 323°
2026-04-26 18:47 33.31011 -100.40155 31852 ft 422 kts 323°
2026-04-26 18:47 33.36159 -100.43538 31854 ft 422 kts 323°
2026-04-26 18:48 33.41310 -100.46929 31838 ft 422 kts 323°
2026-04-26 18:48 33.46462 -100.50324 31864 ft 422 kts 323°
2026-04-26 18:49 33.51610 -100.53721 31858 ft 422 kts 323°
2026-04-26 18:49 33.56755 -100.57120 31858 ft 422 kts 323°
2026-04-26 18:50 33.61903 -100.60525 31850 ft 422 kts 323°
2026-04-26 18:50 33.67012 -100.63911 31853 ft 422 kts 323°
2026-04-26 18:51 33.72167 -100.67332 31846 ft 423 kts 323°
2026-04-26 18:51 33.74755 -100.69052 31442 ft 427 kts 323°
2026-04-26 18:51 33.77341 -100.70769 31056 ft 421 kts 323°
2026-04-26 18:52 33.79893 -100.72462 30560 ft 417 kts 323°
2026-04-26 18:52 33.82424 -100.74143 30081 ft 414 kts 323°
2026-04-26 18:52 33.84929 -100.75810 29615 ft 410 kts 323°
2026-04-26 18:52 33.87420 -100.77469 29140 ft 406 kts 323°
2026-04-26 18:53 33.89874 -100.79104 28898 ft 397 kts 323°
2026-04-26 18:53 33.92256 -100.80687 28836 ft 384 kts 323°
2026-04-26 18:53 33.94564 -100.82223 28533 ft 378 kts 322°
2026-04-26 18:53 33.96845 -100.83754 27729 ft 384 kts 322°
2026-04-26 18:54 33.99219 -100.85356 26883 ft 393 kts 323°
2026-04-26 18:54 34.01593 -100.86947 26392 ft 391 kts 323°
2026-04-26 18:54 34.03974 -100.88541 25943 ft 389 kts 323°
2026-04-26 18:54 34.06337 -100.90122 25471 ft 387 kts 323°
2026-04-26 18:55 34.08684 -100.91692 25017 ft 384 kts 323°
2026-04-26 18:55 34.11014 -100.93254 24566 ft 383 kts 323°
2026-04-26 18:55 34.13350 -100.94823 24118 ft 384 kts 323°
2026-04-26 18:55 34.15684 -100.96392 23668 ft 383 kts 323°
2026-04-26 18:56 34.18007 -100.97953 23201 ft 380 kts 324°
2026-04-26 18:56 34.20311 -100.99502 22750 ft 377 kts 323°
2026-04-26 18:56 34.22598 -101.01040 22305 ft 375 kts 323°
2026-04-26 18:56 34.24869 -101.02569 21867 ft 372 kts 323°
2026-04-26 18:57 34.27094 -101.04069 21421 ft 369 kts 323°
2026-04-26 18:57 34.28605 -101.05087 21137 ft 367 kts 323°
2026-04-26 18:57 34.31621 -101.06930 20566 ft 369 kts 329°
2026-04-26 18:57 34.34000 -101.08092 20107 ft 369 kts 331°
2026-04-26 18:58 34.36402 -101.09204 19680 ft 370 kts 332°
2026-04-26 18:58 34.38814 -101.10309 19248 ft 370 kts 332°
2026-04-26 18:58 34.41209 -101.11411 18797 ft 367 kts 332°
2026-04-26 18:58 34.43584 -101.12517 18384 ft 364 kts 332°
2026-04-26 18:59 34.45942 -101.13622 18021 ft 360 kts 332°
2026-04-26 18:59 34.48270 -101.14718 17634 ft 359 kts 331°
2026-04-26 18:59 34.50600 -101.15823 17218 ft 359 kts 331°
2026-04-26 18:59 34.52914 -101.16924 16828 ft 356 kts 332°
2026-04-26 19:00 34.55216 -101.18019 16400 ft 355 kts 332°
2026-04-26 19:00 34.57508 -101.19111 15975 ft 353 kts 331°
2026-04-26 19:00 34.59785 -101.20195 15568 ft 351 kts 332°
2026-04-26 19:00 34.62052 -101.21276 15169 ft 348 kts 332°
2026-04-26 19:01 34.64275 -101.22337 14741 ft 347 kts 332°
2026-04-26 19:01 34.66509 -101.23408 14333 ft 344 kts 332°
2026-04-26 19:01 34.68727 -101.24466 13948 ft 341 kts 332°
2026-04-26 19:01 34.70940 -101.25524 13559 ft 342 kts 332°
2026-04-26 19:02 34.73161 -101.26585 13138 ft 342 kts 332°
2026-04-26 19:02 34.75370 -101.27642 12734 ft 340 kts 332°
2026-04-26 19:02 34.77563 -101.28693 12336 ft 337 kts 332°
2026-04-26 19:02 34.79004 -101.29382 12101 ft 335 kts 333°
2026-04-26 19:03 34.81900 -101.30773 11539 ft 334 kts 333°
2026-04-26 19:03 34.84059 -101.31810 11143 ft 332 kts 333°
2026-04-26 19:03 34.86203 -101.32838 10753 ft 330 kts 334°
2026-04-26 19:03 34.88333 -101.33859 10538 ft 325 kts 334°
2026-04-26 19:04 34.90423 -101.34864 10367 ft 320 kts 334°
2026-04-26 19:04 34.92441 -101.35835 10227 ft 312 kts 334°
2026-04-26 19:04 34.94432 -101.36790 10089 ft 303 kts 333°
2026-04-26 19:04 34.96367 -101.37720 9975 ft 294 kts 334°
2026-04-26 19:05 35.00142 -101.39543 9428 ft 290 kts 334°
2026-04-26 19:05 35.02011 -101.40445 9147 ft 288 kts 334°
2026-04-26 19:05 35.03870 -101.41342 8863 ft 286 kts 335°
2026-04-26 19:06 35.05725 -101.42238 8548 ft 286 kts 335°
2026-04-26 19:06 35.07564 -101.43127 8273 ft 283 kts 335°
2026-04-26 19:06 35.09378 -101.44005 7985 ft 278 kts 335°
2026-04-26 19:06 35.11162 -101.44868 7708 ft 274 kts 335°
2026-04-26 19:07 35.12943 -101.45731 7415 ft 278 kts 335°
2026-04-26 19:07 35.14741 -101.46601 7146 ft 277 kts 336°
2026-04-26 19:07 35.16498 -101.47452 6901 ft 271 kts 336°
2026-04-26 19:07 35.18179 -101.48447 6766 ft 262 kts 319°
2026-04-26 19:08 35.19472 -101.49933 6685 ft 258 kts 312°
2026-04-26 19:08 35.20738 -101.51471 6558 ft 252 kts 313°
2026-04-26 19:08 35.21971 -101.52940 6440 ft 243 kts 313°
2026-04-26 19:08 35.23160 -101.54347 6343 ft 232 kts 314°
2026-04-26 19:09 35.24289 -101.55675 6269 ft 219 kts 314°
2026-04-26 19:09 35.25375 -101.56946 6022 ft 213 kts 314°
2026-04-26 19:09 35.26431 -101.58192 5807 ft 208 kts 312°
2026-04-26 19:09 35.27318 -101.59552 5579 ft 202 kts 296°
2026-04-26 19:10 35.27777 -101.61130 5315 ft 192 kts 276°
2026-04-26 19:10 35.27764 -101.62689 5077 ft 175 kts 257°
2026-04-26 19:10 35.27421 -101.64047 4856 ft 163 kts 244°
2026-04-26 19:10 35.26867 -101.65206 4669 ft 157 kts 231°
2026-04-26 19:11 35.26151 -101.66192 4449 ft 153 kts 225°
2026-04-26 19:11 35.25409 -101.67118 4245 ft 154 kts 224°
2026-04-26 19:11 35.24656 -101.68056 4053 ft 155 kts 225°
2026-04-26 19:11 35.23897 -101.69003 3844 ft 154 kts 224°
2026-04-26 19:12 35.23159 -101.69923 3714 ft 149 kts 225°
2026-04-26 19:12 35.22683 -101.70523 3612 ft 141 kts 225°
2026-04-26 19:12 35.22089 -101.71276 3605 ft 104 kts 226°
2026-04-26 19:12 35.21676 -101.71798 3607 ft 74 kts 226°
2026-04-26 19:13 35.21423 -101.72112 3606 ft 37 kts 225°
2026-04-26 19:13 35.21316 -101.72135 3605 ft 14 kts 130°
2026-04-26 19:13 35.21247 -101.72050 3605 ft 14 kts 135°
2026-04-26 19:13 35.21181 -101.71968 3605 ft 13 kts 129°
2026-04-26 19:14 35.21209 -101.71874 3607 ft 13 kts 55°
2026-04-26 19:14 35.21276 -101.71781 3606 ft 16 kts 45°
2026-04-26 19:14 35.21363 -101.71672 3607 ft 20 kts 46°
2026-04-26 19:14 35.21429 -101.71590 3607 ft 21 kts 46°
2026-04-26 19:15 35.21579 -101.71399 3606 ft 25 kts 45°
2026-04-26 19:15 35.21705 -101.71241 3607 ft 27 kts 45°
2026-04-26 19:15 35.21836 -101.71078 3607 ft 27 kts 45°
2026-04-26 19:15 35.21962 -101.70923 3607 ft 25 kts 45°
2026-04-26 19:16 35.22062 -101.70795 3607 ft 16 kts 47°
2026-04-26 19:16 35.22056 -101.70699 3607 ft 10 kts 117°
2026-04-26 19:16 35.22066 -101.70628 3605 ft 10 kts 51°
2026-04-26 19:16 35.22064 -101.70563 3607 ft 10 kts 166°
2026-04-26 19:17 35.21997 -101.70565 3606 ft 10 kts 185°
2026-04-26 19:17 35.21971 -101.70568 3607 ft 2 kts 185°
2026-04-26 19:17 35.21966 -101.70569 3607 ft 0 kts 185°